Change the Weather History Date:

Tuesday, April 23, 2013

  Actual Average Record
Temperature  
Mean Temperature 44 °F -  
Max Temperature 59 °F 61 °F 84 °F (2012)
Min Temperature 30 °F 37 °F 30 °F (2013)
Degree Days  
Heating Degree Days 20    
Moisture  
Dew Point 29 °F    
Average Humidity 68    
Maximum Humidity 92    
Minimum Humidity 26    
Precipitation  
Precipitation 0.00 in - - ()
Sea Level Pressure  
Sea Level Pressure 30.37 in    
Wind  
Wind Speed 2 mph (SSE)    
Max Wind Speed 8 mph    
Max Gust Speed -    
Averages and records for this station are not official NWS values.
T = Trace of Precipitation, MM = Missing Value Source: NWS Daily Summary

Daily Weather History Graph

Daily Weather History Graph

Search for Another Location

Airport or City:

Trip Planner

Search our weather history database for the weather conditions in past years. The results will help you decide how hot, cold, wet, or windy it might be!

Date:

Astronomy

Apr. 23, 2013 Rise Set
Actual Time 6:41 AM MDT 8:40 PM MDT
Civil Twilight 6:09 AM MDT 9:13 PM MDT
Nautical Twilight 5:29 AM MDT 9:52 PM MDT
Astronomical Twilight 4:45 AM MDT 10:37 PM MDT
Moon 6:35 PM MDT (4/23) 5:19 AM MDT (4/23)
Length of Visible Light 15h 03m
Length of Day
13h 59m
Waxing Gibbous, 94% of the Moon is Illuminated
Apr 23
Waxing Gibbous
Apr 25
Full
May 2
Last Quarter
May 9
New
May 17
First Quarter

Hourly Weather History & Observations

Time (MDT) Temp. Windchill Dew Point Humidity Pressure Visibility Wind Dir Wind Speed Gust Speed Precip Events Conditions
12:52 AM 34.0 °F 31.0 °F 32.0 °F 92% 30.47 in - Variable 3.5 mph - N/A   Unknown
1:52 AM 33.1 °F 30.0 °F 30.9 °F 92% 30.47 in - NNW 3.5 mph - N/A   Unknown
2:52 AM 32.0 °F - 30.0 °F 92% 30.47 in - Calm Calm - N/A   Unknown
3:52 AM 30.9 °F - 28.9 °F 92% 30.46 in - Calm Calm - N/A   Unknown
4:52 AM 30.9 °F - 28.9 °F 92% 30.47 in - Calm Calm - N/A   Unknown
5:52 AM 30.9 °F - 28.9 °F 92% 30.47 in - Calm Calm - N/A   Unknown
6:52 AM 30.0 °F - 28.0 °F 92% 30.48 in - Calm Calm - N/A   Unknown
7:52 AM 30.0 °F - 28.0 °F 92% 30.49 in - Calm Calm - N/A   Unknown
8:52 AM 34.0 °F - 30.0 °F 85% 30.47 in - Calm Calm - N/A   Unknown
9:52 AM 37.9 °F 35.5 °F 30.9 °F 76% 30.43 in - NNW 3.5 mph - N/A   Unknown
10:52 AM - - - N/A% 30.35 in - Calm Calm - N/A   Unknown
11:52 AM 48.9 °F - 28.0 °F 44% 30.35 in - Calm Calm - N/A   Unknown
12:52 PM 52.0 °F - 26.1 °F 37% 30.32 in - South 3.5 mph - N/A   Unknown
1:52 PM 54.0 °F - 21.9 °F 29% 30.30 in - SSE 3.5 mph - N/A   Unknown
2:52 PM 55.0 °F - 23.0 °F 29% 30.29 in - SSE 4.6 mph - N/A   Unknown
3:52 PM 55.9 °F - 21.9 °F 27% 30.27 in - SSE 6.9 mph - N/A   Unknown
4:52 PM 59.0 °F - 24.1 °F 26% 30.24 in - South 8.1 mph - N/A   Unknown
5:52 PM 53.1 °F - 30.9 °F 43% 30.24 in - Calm Calm - N/A   Unknown
6:52 PM 48.9 °F - 33.1 °F 54% 30.24 in - Calm Calm - N/A   Unknown
7:52 PM 46.0 °F - 35.1 °F 66% 30.26 in - Calm Calm - N/A   Unknown
8:52 PM 42.1 °F - 35.1 °F 76% 30.29 in - Calm Calm - N/A   Unknown
9:52 PM 39.9 °F - 34.0 °F 79% 30.32 in - Calm Calm - N/A   Unknown
10:52 PM 37.9 °F - 33.1 °F 83% 30.29 in - Calm Calm - N/A   Unknown
11:52 PM 37.0 °F - 32.0 °F 82% 30.34 in - Calm Calm - N/A   Unknown